Other Public Products
Issued by NWS Grand Forks, ND

Home | Current Version | Previous Version | Graphics & Text | Print | Product List | Glossary On
Versions: 1 2 3 4 5 6 7 8 9 10 11 12 13 14 15 16 17 18 19 20 21 22 23 24 25 26 27 28 29 30 31 32 33 34 35 36 37 38 39 40 41 42 43 44 45 46 47 48 49 50
000
FPUS83 KFGF 272031
OPUFGF
PRAIRIE TO PINES WEATHER ROUNDUP
NATIONAL WEATHER SERVICE EASTERN NORTH DAKOTA/GRAND FORKS ND
300 PM CDT SUN MAY 27 2018

 **SATELLITE DATA USED TO AUGMENT SKY COVER AT AUTOMATED STATIONS**
 *****  WEATHER ACROSS EASTERN NORTH DAKOTA  *****

CITY           SKY/WX    TMP DP  RH WIND       PRES   REMARKS
GRAND FORKS    PTSUNNY   80  62  54 N9        29.82S
GRND FORKS AFB FAIR      79  61  53 N8        29.84R
GRND FORKS NWS   N/A     80  62  53 NE12      29.79S
BUXTON           N/A     78  68  69 N12         N/A
DEVILS LAKE    FAIR      78  58  49 E8        29.84F
FARGO          FAIR      76  64  66 N14       29.79R
WAHPETON ARPT  FAIR      90  52  27 S22G29    29.76F
$$

 *****  WEATHER ACROSS CENTRAL AND WESTERN NORTH DAKOTA  *****

CITY           SKY/WX    TMP DP  RH WIND       PRES   REMARKS
JAMESTOWN      FAIR      76  64  66 NE12      29.82S
BISMARCK       FAIR      80  59  48 NE12G17   29.84S
MINOT          FAIR      83  57  41 NW9G16    29.86S
MINOT AFB      FAIR      81  58  44 NW9G17    29.85S
GARRISON       NOT AVBL
WILLISTON      FAIR      79  60  52 N8        29.93F
DICKINSON      FAIR      77  55  46 N18G25    29.89R
HETTINGER      FAIR      81  57  43 N13G22    29.91R
$$

 *****  OTHER OBSERVATIONS NORTHEAST NORTH DAKOTA  *****

CITY           SKY/WX    TMP DP  RH WIND       PRES   REMARKS
WALHALLA       FAIR      81  63  54 CALM      29.83F
LANGDON        FAIR      82  57  42 NW7       29.86F
CAVALIER         N/A     79  64  61 VRB5      29.82F
GRAFTON        FAIR      81  59  47 N9G16     29.83F
CANDO          FAIR      81  57  44 CALM      29.86F
FORT TOTTEN      N/A     79  60  52 NE6       29.95S
ROLLA          FAIR      79  57  47 N7G13     29.88S
RUGBY          NOT AVBL
 ***** THE ABOVE OBSERVATIONS ARE NON NWS ARE NOT QUALITY
        CONTROLLED AND MAY MIS-REPORT RAIN FOR SNOW...
$$

 *****  OTHER OBSERVATIONS SOUTHEAST NORTH DAKOTA *****

CITY           SKY/WX    TMP DP  RH WIND       PRES   REMARKS
COOPERSTOWN    FAIR      75  64  69 NE12      29.84F
VALLEY CITY    FAIR      77  66  69 NE13      29.83F
OAKES            N/A     86  64  48 SE21G28   29.75F
GWINNER          N/A     81  66  61 SE22      29.76S
SHEYENNE NWR     N/A     87  61  41 S20       29.95S
BUFFALO          N/A     74  60  60 W12         N/A
WYNDMERE       NOT AVBL
 ***** THE ABOVE OBSERVATIONS ARE NON NWS ARE NOT QUALITY
       CONTROLLED AND MAY MIS-REPORT RAIN FOR SNOW...
$$

  *****  WEATHER ACROSS NORTHERN MINNESOTA  *****

CITY           SKY/WX    TMP DP  RH WIND       PRES   REMARKS
FLAG ISLAND    PTSUNNY   70  61  73 N5        29.86S
WARROAD        FAIR      72  64  78 E6        29.88R
ROSEAU         FAIR      79  63  57 N8        29.86S
HALLOCK        FAIR      81  63  54 NE5       29.83F
THF RVR FALLS  FAIR      80  60  50 NE13      29.85R
HALSTAD          N/A     76  66  72 N15         N/A
FOSSTON        FAIR      79  63  57 N13       29.84S
BAUDETTE         N/A    N/A N/A N/A MISG      29.86S
WASKISH        FAIR      81  61  50 CALM      29.84F
CROOKSTON      FAIR      81  57  44 NE8       29.83R
$$
  *****  WEATHER ACROSS CENTRAL AND WEST MINNESOTA  *****

CITY           SKY/WX    TMP DP  RH WIND       PRES   REMARKS
BEMIDJI        FAIR      79  59  49 NE7       29.84S
PARK RAPIDS    FAIR      78  61  55 S9        29.80F
WADENA         FAIR      84  61  45 S9        29.81F
DETROIT LAKES  FAIR      81  59  47 S15       29.79F
MOORHEAD       FAIR      81  63  54 N7G15     29.79R
FERGUS FALLS   FAIR      86  59  39 SE16      29.73F
ELBOW LAKE     FAIR      88  59  37 E17G23    29.80F
MORRIS MN      FAIR      84  64  51 SE16      29.79F
STAPLES        FAIR      82  57  42 S10       29.82F
WHEATON        NOT AVBL
$$
  *****  WEATHER ELSEWHERE ACROSS MINNESOTA  *****

CITY           SKY/WX    TMP DP  RH WIND       PRES   REMARKS
DULUTH         FAIR      86  57  37 VRB3      29.81R
INTRNTL FALLS  PTSUNNY   76  63  64 NE7       29.85S
ELY            FAIR      84  52  32 CALM      29.84R
CLOQUET        FAIR      84  52  32 SW8       29.80R
BRAINERD       FAIR      81  62  52 S8        29.81F
HIBBING        FAIR      80  59  48 NW5       29.83R
ALEXANDRIA     FAIR      85  60  42 SE9       29.85S
SAINT CLOUD    FAIR      83  56  39 SE13      29.83F
MINNEAPOLIS    CLOUDY    88  60  38 E10       29.85F
$$

  *****  WEATHER ACROSS SOUTH DAKOTA  *****

CITY           SKY/WX    TMP DP  RH WIND       PRES   REMARKS
SIOUX FALLS    FAIR      94  64  37 S7        29.81F HX  95
BROOKINGS      FAIR      97  58  27 SW13G24   29.80F HX  96
WATERTOWN      FAIR      93  60  33 S14       29.77F HX  93
HURON          FAIR      95  60  31 S24G37    29.73S HX  95
SISSETON         N/A     86  66  51 SE13      29.76F
ABERDEEN       FAIR     100  52  19 SW24G38   29.70F HX  97
MITCHELL       FAIR      97  56  25 S20G32    29.76F HX  95
PIERRE         FAIR      89  62  40 W13       29.72F
MOBRIDGE       FAIR      89  64  43 NW12      29.72F HX  90
RAPID CITY     FAIR      81  57  43 N21G32    29.87S
$$

  *****  SOME WEATHER IN NEARBY STATES *****

CITY           SKY/WX    TMP DP  RH WIND       PRES   REMARKS
GLASGOW MT     FAIR      83  48  29 E12       29.98R
GREAT FALLS MT FAIR      76  47  35 VRB5      30.05F
CHEYENNE WY    FAIR      75  52  44 E13G24    29.97S
SCOTTSBLUFF NE FAIR      82  62  50 NE14G21   29.86F
OMAHA NE       PTSUNNY   99  58  25 S15       29.83F HX  98
DES MOINES IA  FAIR      96  65  35 SE7       29.83F HX  98
DAVENPORT IA   FAIR      94  62  34 SW9       29.85F HX  94
CHICAGO IL     FAIR      95  59  30 N3        29.85F HX  94
EAU CLAIRE WI  FAIR      92  55  28 VRB7G20   29.87R HX  90
LA CROSSE WI   FAIR      97  55  24 VRB6      29.84F HX  95
$$

  *****  SOME NATIONAL WEATHER *****

CITY           SKY/WX    TMP DP  RH WIND       PRES   REMARKS
LA GUARDIA NY  CLOUDY    61  54  77 NE25G31   30.03F
RALEIGH NC     PTSUNNY   86  70  58 SW14      29.97F HX  90
ATLANTA GA     CLOUDY    83  68  60 E12       29.92F
NEW ORLEANS LA FAIR      89  70  53 NE7       29.80F HX  94
OKLAHOMA CITY  FAIR      89  69  51 SE12      29.86S HX  93
ALBUQUERQUE NM FAIR      83   8   6 S13       29.95F
SALT LAKE CITY PTSUNNY   64  48  56 W12       29.96
LOS ANGELES CA FAIR      69  53  56 W12       29.94F
BOISE ID       FAIR      78  49  35 NW22G31   29.92F
SEATTLE WA     PTSUNNY   67  47  48 NW8       30.22F
$$

*** WEATHER ACROSS MANITOBA...SASKATCHEWAN AND ONTARIO ***
                ***ONTARIO***

CITY           SKY/WX    TMP DP  RH WIND       PRES   REMARKS
GERALDTON      PTSUNNY   75  59  57 W7G17     29.81S
THUNDER BAY    PTSUNNY   68  55  64 NE6       29.82S
SIOUX LOOKOUT  PTSUNNY   72  57  60 NW6       29.86R
TORONTO        MOSUNNY   79  66  65 S9        29.90S
BIG TROUT LK   MOSUNNY   63  52  67 W10       29.73S
PICKLE LAKE    PTSUNNY   68  55  64 W12       29.81S
DRYDEN         CLOUDY    73  57  56 W7        29.86S
KENORA         CLOUDY    70  59  68 N5        29.88F
$$
                *** MANITOBA***

CITY           SKY/WX    TMP DP  RH WIND       PRES   REMARKS
BRANDON        PTSUNNY   79  61  53 W9G18     29.87S
DAUPHIN        PTSUNNY   81  59  47 VRB6      29.83S
ISLAND LAKE    PTSUNNY   73  57  56 SW10G17   29.71F THUNDER
PILOT MOUND      N/A     79  59  50 NW7         N/A
THE PAS        MOSUNNY   72  43  35 W13G20    29.83S
THOMPSON       PTSUNNY   75  39  27 W22G30    29.71R
WINNIPEG       PTSUNNY   81  63  54 W6        29.84S
LYNN LAKE      CLOUDY    61  43  51 NW16G25   29.79R
CHURCHILL      CLOUDY    41  36  81 NW14      29.69R
GILLAM         CLOUDY    63  43  48 W13G20    29.65R
$$
                ***SASKATCHEWAN***

CITY           SKY/WX    TMP DP  RH WIND       PRES   REMARKS
ESTEVAN        PTSUNNY   77  59  53 N10       29.92S
KINDERSLEY     PTSUNNY   72  37  28 NW9       30.05S
LLOYDMINSTER   PTSUNNY   70  37  30 W10G24    30.03S
PRINCE ALBERT  MOSUNNY   73  36  25 NW14G28   29.97S
REGINA         MOSUNNY   77  41  27 N15G23    29.98S
YORKTON        SUNNY     77  43  29 N14G21    29.92R


USA.gov is the U.S. government's official web portal to all federal, state and local government web resources and services.